Location: Iesi
(43.5167°N, 13.2333°E)
Time: 02:26:53
(UTC+00:00)

Terra - Pass Details

Date: 08 August 2020
Orbit: 701 x 703 km, 98.2° (Epoch: 19 September)

Event Time Altitude Azimuth Distance (km) Brightness Sun altitude
Exits shadow 22:01:18 26° 265° (W) 1,364 3.4 -28.5°
Maximum altitude 22:01:19 26° 265° (W) 1,364 3.4 -28.5°
Drops below altitude 10° 22:05:19 10° 322° (NW) 2,179 5.2 -28.7°
Sets 22:07:55 0° 335° (NNW) 3,102 6.4 -28.9°
